KUWAITSAT-1 (55103 NORAD) Tracking and Keplerian Element Data

This shows tracking and keplerian element data for the satellite.

Feedback or suggestion? Click here.




ElementValue
Catalog55103
NameKUWAITSAT-1
Epoch Orbit1884
Epoch Day127.07739421
Epoch Year2023
RAAN187.3766
Inclination97.4836
Eccentricity0.0017896
Argument of Perigee141.3792
Mean Anonmoly218.8724
Mean Motion15.15509482
Decay Rate7.564E-05
L11 55103U 23001CY 23127.07739421 .00007564 00000+0 40117-3 0 9995
L22 55103 97.4836 187.3766 0017896 141.3792 218.8724 15.15509482 18842



Live tracking and technical data element details for KUWAITSAT-1 (NORAD 55103). KUWAITSAT-1 can be tracked NOW for your location showing map with azimuth and elevation plus other details from your city location.







IsCatalogInMostPopularTable: catalog: 55103, numindb: -1

Insert: records affected: 1


GetName: 55103 KUWAITSAT-1

Hit Count: inserted at: Mon, 05 Jun 2023 20:06:37 GMT